WTB2JB TNCM-MDSD

Flight info

Callsign WTB2JB
Flight time 1h 6m
Altitude 36000
Route GOUDA L577 ANTEX/N0383F180 L577 GOSUB
Aircraft A321/M-SDE3FGHIRWY/LB1

Departure

Time 2026-05-04 18:40
Airport Princess Juliana International Airport (TNCM)

Arrival

Time 2026-05-04 19:47
Airport Las Américas International Airport (MDSD)
Time Latitude Longitude Altitude Speed Heading
2026-05-04 17:14 18.04301 -63.11497 23 ft 0 kts 352°
2026-05-04 17:16 18.04300 -63.11497 23 ft 0 kts 352°
2026-05-04 17:35 18.04299 -63.11496 21 ft 0 kts 352°
2026-05-04 17:36 18.04299 -63.11497 21 ft 0 kts 352°
2026-05-04 17:36 18.04299 -63.11496 21 ft 0 kts 352°
2026-05-04 17:55 18.04298 -63.11496 21 ft 0 kts 352°
2026-05-04 18:14 18.04297 -63.11496 21 ft 0 kts 352°
2026-05-04 18:25 18.04288 -63.11495 21 ft 7 kts 349°
2026-05-04 18:26 18.04263 -63.11488 23 ft 8 kts 339°
2026-05-04 18:26 18.04241 -63.11477 24 ft 8 kts 314°
2026-05-04 18:26 18.04232 -63.11459 26 ft 8 kts 246°
2026-05-04 18:26 18.04236 -63.11451 26 ft 7 kts 236°
2026-05-04 18:28 18.04223 -63.11471 24 ft 7 kts 236°
2026-05-04 18:28 18.04188 -63.11520 21 ft 9 kts 231°
2026-05-04 18:29 18.04134 -63.11590 21 ft 15 kts 231°
2026-05-04 18:29 18.04075 -63.11671 22 ft 13 kts 240°
2026-05-04 18:29 18.04054 -63.11760 22 ft 12 kts 261°
2026-05-04 18:29 18.04049 -63.11795 21 ft 0 kts 261°
2026-05-04 18:30 18.04047 -63.11809 21 ft 7 kts 261°
2026-05-04 18:31 18.04042 -63.11840 21 ft 1 kts 262°
2026-05-04 18:31 18.04042 -63.11847 21 ft 0 kts 262°
2026-05-04 18:33 18.04042 -63.11846 21 ft 0 kts 262°
2026-05-04 18:36 18.04041 -63.11849 21 ft 1 kts 262°
2026-05-04 18:36 18.04028 -63.11895 21 ft 11 kts 246°
2026-05-04 18:37 18.03989 -63.11954 23 ft 8 kts 212°
2026-05-04 18:37 18.03946 -63.11942 22 ft 5 kts 127°
2026-05-04 18:37 18.03947 -63.11912 22 ft 0 kts 81°
2026-05-04 18:40 18.03955 -63.11855 22 ft 32 kts 81°
2026-05-04 18:40 18.04026 -63.11366 23 ft 100 kts 82°
2026-05-04 18:40 18.04153 -63.10449 28 ft 150 kts 84°
2026-05-04 18:40 18.04239 -63.09373 683 ft 138 kts 101°
2026-05-04 18:41 18.03690 -63.08614 1315 ft 139 kts 156°
2026-05-04 18:41 18.02737 -63.08383 1806 ft 147 kts 165°
2026-05-04 18:41 18.01671 -63.08140 2001 ft 167 kts 164°
2026-05-04 18:41 18.00447 -63.07894 2143 ft 190 kts 165°
2026-05-04 18:42 17.99075 -63.07629 2273 ft 213 kts 165°
2026-05-04 18:42 17.97535 -63.07309 2490 ft 237 kts 165°
2026-05-04 18:42 17.95862 -63.06949 2964 ft 251 kts 165°
2026-05-04 18:42 17.94113 -63.06721 3640 ft 259 kts 181°
2026-05-04 18:43 17.92360 -63.07276 4331 ft 271 kts 208°
2026-05-04 18:43 17.91011 -63.08698 5046 ft 283 kts 238°
2026-05-04 18:43 17.90488 -63.10671 5730 ft 291 kts 268°
2026-05-04 18:43 17.90572 -63.12809 6446 ft 294 kts 272°
2026-05-04 18:44 17.90698 -63.14959 7132 ft 296 kts 272°
2026-05-04 18:44 17.90743 -63.15689 7352 ft 297 kts 272°
2026-05-04 18:44 17.90958 -63.19309 8457 ft 299 kts 271°
2026-05-04 18:44 17.91082 -63.21502 9118 ft 302 kts 271°
2026-05-04 18:45 17.91162 -63.22962 9581 ft 303 kts 271°
2026-05-04 18:45 17.91279 -63.25169 10243 ft 305 kts 271°
2026-05-04 18:45 17.91395 -63.27471 10362 ft 326 kts 272°
2026-05-04 18:45 17.91519 -63.29915 10480 ft 344 kts 272°
2026-05-04 18:46 17.91651 -63.32490 10598 ft 362 kts 272°
2026-05-04 18:46 17.91791 -63.35175 10876 ft 373 kts 272°
2026-05-04 18:46 17.91936 -63.37908 11328 ft 377 kts 272°
2026-05-04 18:46 17.92081 -63.40673 11824 ft 381 kts 272°
2026-05-04 18:47 17.92224 -63.43464 12325 ft 384 kts 272°
2026-05-04 18:47 17.92366 -63.46276 12829 ft 387 kts 272°
2026-05-04 18:47 17.92509 -63.49111 13340 ft 390 kts 272°
2026-05-04 18:47 17.92658 -63.51958 13841 ft 393 kts 272°
2026-05-04 18:48 17.92810 -63.54836 14261 ft 395 kts 272°
2026-05-04 18:48 17.92960 -63.57725 14746 ft 396 kts 272°
2026-05-04 18:48 17.93107 -63.60615 15252 ft 396 kts 272°
2026-05-04 18:48 17.93252 -63.63501 15750 ft 396 kts 272°
2026-05-04 18:49 17.93415 -63.66395 16207 ft 398 kts 276°
2026-05-04 18:49 17.93887 -63.69258 16694 ft 398 kts 281°
2026-05-04 18:49 17.94419 -63.72059 17207 ft 397 kts 281°
2026-05-04 18:49 17.94966 -63.74947 17668 ft 397 kts 281°
2026-05-04 18:50 17.95496 -63.77752 18180 ft 397 kts 281°
2026-05-04 18:50 17.96035 -63.80605 18540 ft 400 kts 281°
2026-05-04 18:50 17.96577 -63.83481 18830 ft 404 kts 281°
2026-05-04 18:50 17.97119 -63.86373 19189 ft 406 kts 281°
2026-05-04 18:51 17.97663 -63.89294 19485 ft 409 kts 281°
2026-05-04 18:51 17.98212 -63.92244 19748 ft 413 kts 281°
2026-05-04 18:51 17.98768 -63.95210 20098 ft 415 kts 281°
2026-05-04 18:51 17.99327 -63.98204 20360 ft 419 kts 281°
2026-05-04 18:52 17.99886 -64.01216 20693 ft 421 kts 281°
2026-05-04 18:52 18.00449 -64.04246 20962 ft 425 kts 281°
2026-05-04 18:52 18.01021 -64.07307 21229 ft 429 kts 281°
2026-05-04 18:52 18.01599 -64.10389 21517 ft 432 kts 281°
2026-05-04 18:53 18.02181 -64.13501 21799 ft 435 kts 281°
2026-05-04 18:53 18.02765 -64.16633 22081 ft 439 kts 281°
2026-05-04 18:53 18.03355 -64.19796 22358 ft 442 kts 281°
2026-05-04 18:53 18.03947 -64.22975 22634 ft 446 kts 281°
2026-05-04 18:54 18.04536 -64.26140 22877 ft 449 kts 281°
2026-05-04 18:54 18.05137 -64.29371 23183 ft 452 kts 281°
2026-05-04 18:54 18.05744 -64.32629 23416 ft 455 kts 281°
2026-05-04 18:54 18.06349 -64.35894 23719 ft 457 kts 281°
2026-05-04 18:55 18.06953 -64.39184 23953 ft 459 kts 281°
2026-05-04 18:55 18.08163 -64.45790 24470 ft 462 kts 281°
2026-05-04 18:55 18.08774 -64.49111 24755 ft 463 kts 281°
2026-05-04 18:56 18.09385 -64.52431 25046 ft 463 kts 282°
2026-05-04 18:56 18.09996 -64.55761 25329 ft 464 kts 281°
2026-05-04 18:56 18.10607 -64.59092 25609 ft 464 kts 282°
2026-05-04 18:56 18.11220 -64.62425 25870 ft 465 kts 282°
2026-05-04 18:57 18.11836 -64.65763 26133 ft 466 kts 282°
2026-05-04 18:57 18.12452 -64.69115 26400 ft 466 kts 282°
2026-05-04 18:57 18.13060 -64.72424 26637 ft 467 kts 282°
2026-05-04 18:57 18.13675 -64.75779 26883 ft 468 kts 282°
2026-05-04 18:58 18.14290 -64.79147 27118 ft 469 kts 281°
2026-05-04 18:58 18.14903 -64.82525 27373 ft 470 kts 282°
2026-05-04 18:58 18.15515 -64.85904 27614 ft 471 kts 282°
2026-05-04 18:58 18.16129 -64.89287 27884 ft 471 kts 282°
2026-05-04 18:59 18.16747 -64.92674 28133 ft 472 kts 281°
2026-05-04 18:59 18.17367 -64.96074 28361 ft 473 kts 282°
2026-05-04 18:59 18.17944 -64.99477 28642 ft 473 kts 280°
2026-05-04 18:59 18.18403 -65.02896 28965 ft 472 kts 278°
2026-05-04 19:00 18.18766 -65.06321 29298 ft 471 kts 277°
2026-05-04 19:00 18.19078 -65.09742 29631 ft 469 kts 277°
2026-05-04 19:00 18.19378 -65.13149 29947 ft 468 kts 277°
2026-05-04 19:00 18.19693 -65.16552 30230 ft 467 kts 277°
2026-05-04 19:01 18.20032 -65.19948 30486 ft 466 kts 277°
2026-05-04 19:01 18.20389 -65.23330 30747 ft 465 kts 278°
2026-05-04 19:01 18.20755 -65.26705 31029 ft 464 kts 277°
2026-05-04 19:01 18.21124 -65.30073 31284 ft 463 kts 277°
2026-05-04 19:02 18.21493 -65.33436 31535 ft 463 kts 277°
2026-05-04 19:02 18.21857 -65.36791 31794 ft 462 kts 277°
2026-05-04 19:02 18.22218 -65.40148 32063 ft 461 kts 277°
2026-05-04 19:02 18.22572 -65.43495 32339 ft 460 kts 277°
2026-05-04 19:03 18.22919 -65.46834 32608 ft 459 kts 277°
2026-05-04 19:03 18.23264 -65.50174 32877 ft 458 kts 277°
2026-05-04 19:03 18.23612 -65.53509 33122 ft 458 kts 277°
2026-05-04 19:03 18.23964 -65.56837 33396 ft 457 kts 277°
2026-05-04 19:04 18.24315 -65.60156 33667 ft 456 kts 277°
2026-05-04 19:04 18.24659 -65.63425 33975 ft 454 kts 276°
2026-05-04 19:04 18.25005 -65.66721 34265 ft 452 kts 276°
2026-05-04 19:04 18.25350 -65.70000 34481 ft 451 kts 276°
2026-05-04 19:05 18.25695 -65.73279 34725 ft 449 kts 276°
2026-05-04 19:05 18.26037 -65.76541 34966 ft 448 kts 276°
2026-05-04 19:05 18.26373 -65.79782 35283 ft 445 kts 276°
2026-05-04 19:05 18.26707 -65.83017 35467 ft 445 kts 276°
2026-05-04 19:06 18.27039 -65.86249 35685 ft 444 kts 277°
2026-05-04 19:06 18.27372 -65.89484 35892 ft 444 kts 277°
2026-05-04 19:06 18.27704 -65.92708 36021 ft 443 kts 277°
2026-05-04 19:06 18.28036 -65.95926 36056 ft 442 kts 276°
2026-05-04 19:07 18.28697 -66.02341 36037 ft 441 kts 276°
2026-05-04 19:07 18.29352 -66.08755 36038 ft 441 kts 276°
2026-05-04 19:08 18.30004 -66.15167 36036 ft 440 kts 276°
2026-05-04 19:08 18.30653 -66.21537 36036 ft 440 kts 276°
2026-05-04 19:09 18.31305 -66.27944 36039 ft 441 kts 276°
2026-05-04 19:09 18.31949 -66.34359 36040 ft 441 kts 276°
2026-05-04 19:10 18.32598 -66.40778 36041 ft 441 kts 276°
2026-05-04 19:10 18.33242 -66.47203 36044 ft 441 kts 276°
2026-05-04 19:11 18.33887 -66.53629 36049 ft 442 kts 276°
2026-05-04 19:11 18.34529 -66.60060 36050 ft 442 kts 276°
2026-05-04 19:12 18.35481 -66.69705 36051 ft 442 kts 276°
2026-05-04 19:13 18.36118 -66.76133 36052 ft 441 kts 276°
2026-05-04 19:13 18.36758 -66.82560 36054 ft 441 kts 276°
2026-05-04 19:14 18.37385 -66.88990 36056 ft 441 kts 276°
2026-05-04 19:14 18.38006 -66.95415 36057 ft 441 kts 276°
2026-05-04 19:15 18.38628 -67.01793 36056 ft 441 kts 276°
2026-05-04 19:15 18.39251 -67.08215 36058 ft 441 kts 276°
2026-05-04 19:16 18.39874 -67.14639 36060 ft 441 kts 276°
2026-05-04 19:16 18.40499 -67.21055 36059 ft 441 kts 276°
2026-05-04 19:17 18.41114 -67.27473 36057 ft 440 kts 276°
2026-05-04 19:17 18.41726 -67.33889 35944 ft 440 kts 276°
2026-05-04 19:17 18.42033 -67.37097 35699 ft 440 kts 275°
2026-05-04 19:18 18.42338 -67.40303 35466 ft 441 kts 275°
2026-05-04 19:18 18.42645 -67.43523 35232 ft 442 kts 275°
2026-05-04 19:18 18.42948 -67.46706 35003 ft 444 kts 275°
2026-05-04 19:18 18.43251 -67.49872 34777 ft 445 kts 275°
2026-05-04 19:19 18.43559 -67.53120 34550 ft 447 kts 275°
2026-05-04 19:19 18.43868 -67.56379 34326 ft 448 kts 275°
2026-05-04 19:19 18.44176 -67.59648 34104 ft 449 kts 275°
2026-05-04 19:19 18.44485 -67.62924 33859 ft 450 kts 275°
2026-05-04 19:20 18.44793 -67.66209 33603 ft 451 kts 275°
2026-05-04 19:20 18.45101 -67.69501 33353 ft 452 kts 275°
2026-05-04 19:20 18.45409 -67.72794 33102 ft 452 kts 275°
2026-05-04 19:20 18.45715 -67.76102 32302 ft 457 kts 275°
2026-05-04 19:21 18.46023 -67.79432 31381 ft 452 kts 276°
2026-05-04 19:21 18.46322 -67.82679 30516 ft 440 kts 276°
2026-05-04 19:21 18.46614 -67.85852 29465 ft 431 kts 276°
2026-05-04 19:21 18.46904 -67.88977 28552 ft 432 kts 276°
2026-05-04 19:22 18.47198 -67.92151 27598 ft 438 kts 276°
2026-05-04 19:22 18.47486 -67.95304 26997 ft 437 kts 275°
2026-05-04 19:22 18.47777 -67.98480 26356 ft 435 kts 275°
2026-05-04 19:22 18.47893 -68.01663 25763 ft 434 kts 268°
2026-05-04 19:23 18.47824 -68.04881 25360 ft 447 kts 267°
2026-05-04 19:23 18.47754 -68.08169 24893 ft 450 kts 268°
2026-05-04 19:23 18.47685 -68.11469 24428 ft 451 kts 268°
2026-05-04 19:23 18.47618 -68.14774 23962 ft 450 kts 267°
2026-05-04 19:24 18.47551 -68.18066 23482 ft 449 kts 268°
2026-05-04 19:24 18.47481 -68.21339 22988 ft 444 kts 267°
2026-05-04 19:24 18.47410 -68.24568 22538 ft 438 kts 267°
2026-05-04 19:24 18.47340 -68.27762 22093 ft 434 kts 268°
2026-05-04 19:25 18.47269 -68.30919 21646 ft 429 kts 267°
2026-05-04 19:25 18.47199 -68.34039 21206 ft 423 kts 268°
2026-05-04 19:25 18.47129 -68.37126 20777 ft 420 kts 268°
2026-05-04 19:25 18.47061 -68.40182 20348 ft 416 kts 268°
2026-05-04 19:26 18.46993 -68.43219 19923 ft 412 kts 268°
2026-05-04 19:26 18.46924 -68.46225 19503 ft 409 kts 268°
2026-05-04 19:26 18.46855 -68.49201 19085 ft 405 kts 268°
2026-05-04 19:26 18.46786 -68.52159 18671 ft 402 kts 268°
2026-05-04 19:27 18.46718 -68.55086 18254 ft 398 kts 269°
2026-05-04 19:27 18.46652 -68.57993 17814 ft 396 kts 269°
2026-05-04 19:27 18.46585 -68.60887 17405 ft 395 kts 269°
2026-05-04 19:27 18.46516 -68.63750 17068 ft 380 kts 268°
2026-05-04 19:28 18.46453 -68.66414 16869 ft 349 kts 269°
2026-05-04 19:28 18.46396 -68.68871 16557 ft 326 kts 268°
2026-05-04 19:28 18.46340 -68.71206 16262 ft 314 kts 268°
2026-05-04 19:28 18.46285 -68.73499 16022 ft 313 kts 268°
2026-05-04 19:29 18.46228 -68.75779 15790 ft 310 kts 268°
2026-05-04 19:29 18.46170 -68.78026 15567 ft 310 kts 268°
2026-05-04 19:29 18.46111 -68.80295 15334 ft 310 kts 268°
2026-05-04 19:29 18.46038 -68.82555 15099 ft 309 kts 267°
2026-05-04 19:30 18.45955 -68.84823 14864 ft 310 kts 267°
2026-05-04 19:30 18.45871 -68.87093 14635 ft 308 kts 267°
2026-05-04 19:30 18.45788 -68.89379 14401 ft 308 kts 267°
2026-05-04 19:30 18.45707 -68.91627 14174 ft 306 kts 267°
2026-05-04 19:31 18.45628 -68.93869 13947 ft 307 kts 267°
2026-05-04 19:31 18.45549 -68.96121 13706 ft 308 kts 267°
2026-05-04 19:31 18.45471 -68.98372 13450 ft 308 kts 267°
2026-05-04 19:31 18.45390 -69.00631 13198 ft 308 kts 267°
2026-05-04 19:32 18.45309 -69.02851 12952 ft 307 kts 266°
2026-05-04 19:32 18.45228 -69.05094 12766 ft 306 kts 266°
2026-05-04 19:32 18.45150 -69.07339 12512 ft 307 kts 266°
2026-05-04 19:32 18.45072 -69.09577 12219 ft 306 kts 266°
2026-05-04 19:33 18.44994 -69.11815 11924 ft 305 kts 266°
2026-05-04 19:33 18.44915 -69.14050 11627 ft 305 kts 266°
2026-05-04 19:33 18.44836 -69.16277 11331 ft 304 kts 266°
2026-05-04 19:33 18.44755 -69.18503 11037 ft 304 kts 266°
2026-05-04 19:34 18.44673 -69.20725 10743 ft 302 kts 265°
2026-05-04 19:34 18.44596 -69.22864 10478 ft 284 kts 265°
2026-05-04 19:34 18.44523 -69.24901 10091 ft 272 kts 265°
2026-05-04 19:34 18.44457 -69.26868 9886 ft 267 kts 266°
2026-05-04 19:35 18.44412 -69.28819 9768 ft 266 kts 266°
2026-05-04 19:35 18.44380 -69.30770 9639 ft 266 kts 267°
2026-05-04 19:35 18.44352 -69.32712 9506 ft 265 kts 267°
2026-05-04 19:35 18.44321 -69.34655 9367 ft 265 kts 266°
2026-05-04 19:36 18.44288 -69.36598 9150 ft 265 kts 267°
2026-05-04 19:36 18.44255 -69.38534 8915 ft 264 kts 266°
2026-05-04 19:36 18.44221 -69.40473 8685 ft 265 kts 266°
2026-05-04 19:36 18.44302 -69.42406 8440 ft 266 kts 280°
2026-05-04 19:37 18.44965 -69.44216 8202 ft 266 kts 301°
2026-05-04 19:37 18.46183 -69.45671 7964 ft 266 kts 322°
2026-05-04 19:37 18.47143 -69.46473 7805 ft 266 kts 322°
2026-05-04 19:37 18.49071 -69.48090 7475 ft 264 kts 322°
2026-05-04 19:38 18.50019 -69.48887 7314 ft 263 kts 322°
2026-05-04 19:38 18.51447 -69.50088 7077 ft 262 kts 323°
2026-05-04 19:38 18.53330 -69.51675 6755 ft 261 kts 323°
2026-05-04 19:38 18.54743 -69.52870 6520 ft 257 kts 322°
2026-05-04 19:39 18.56120 -69.54032 6288 ft 250 kts 322°
2026-05-04 19:39 18.57472 -69.55173 6057 ft 249 kts 322°
2026-05-04 19:39 18.58384 -69.55943 5883 ft 248 kts 322°
2026-05-04 19:39 18.59730 -69.57081 5650 ft 248 kts 322°
2026-05-04 19:40 18.61039 -69.58188 5416 ft 237 kts 322°
2026-05-04 19:40 18.62291 -69.59244 5167 ft 226 kts 322°
2026-05-04 19:40 18.63507 -69.60269 4996 ft 224 kts 322°
2026-05-04 19:40 18.64702 -69.61324 4797 ft 225 kts 313°
2026-05-04 19:41 18.65474 -69.62735 4580 ft 222 kts 282°
2026-05-04 19:41 18.65562 -69.64317 4377 ft 213 kts 256°
2026-05-04 19:41 18.65027 -69.65724 4176 ft 204 kts 232°
2026-05-04 19:41 18.64214 -69.66960 3980 ft 205 kts 231°
2026-05-04 19:42 18.63405 -69.68200 3780 ft 205 kts 231°
2026-05-04 19:42 18.62600 -69.69440 3579 ft 204 kts 232°
2026-05-04 19:42 18.61821 -69.70646 3380 ft 193 kts 231°
2026-05-04 19:42 18.61073 -69.71767 3193 ft 182 kts 225°
2026-05-04 19:43 18.60076 -69.72516 3027 ft 174 kts 197°
2026-05-04 19:43 18.58911 -69.72713 2851 ft 169 kts 175°
2026-05-04 19:43 18.57784 -69.72405 2671 ft 168 kts 159°
2026-05-04 19:43 18.56688 -69.71994 2478 ft 167 kts 161°
2026-05-04 19:44 18.55595 -69.71589 2311 ft 167 kts 161°
2026-05-04 19:44 18.54511 -69.71188 2124 ft 162 kts 161°
2026-05-04 19:44 18.53476 -69.70803 1981 ft 154 kts 160°
2026-05-04 19:44 18.52483 -69.70433 1749 ft 150 kts 162°
2026-05-04 19:45 18.51510 -69.70070 1550 ft 147 kts 160°
2026-05-04 19:45 18.50543 -69.69710 1349 ft 147 kts 160°
2026-05-04 19:45 18.49582 -69.69352 1151 ft 147 kts 163°
2026-05-04 19:45 18.48631 -69.69000 983 ft 148 kts 163°
2026-05-04 19:46 18.47623 -69.68629 741 ft 153 kts 161°
2026-05-04 19:46 18.46612 -69.68258 589 ft 157 kts 162°
2026-05-04 19:46 18.45608 -69.67877 321 ft 148 kts 161°
2026-05-04 19:46 18.44656 -69.67517 150 ft 152 kts 161°
2026-05-04 19:47 18.43687 -69.67163 58 ft 137 kts 161°
2026-05-04 19:47 18.43059 -69.66934 67 ft 48 kts 160°
2026-05-04 19:47 18.42933 -69.66905 64 ft 0 kts 262°
2026-05-04 19:47 18.42934 -69.66969 65 ft 14 kts 275°
2026-05-04 19:48 18.42936 -69.66995 67 ft 0 kts 275°
2026-05-04 19:48 18.42936 -69.66996 67 ft 1 kts 275°
2026-05-04 19:48 18.42939 -69.67037 66 ft 8 kts 275°
2026-05-04 19:48 18.42944 -69.67096 63 ft 8 kts 276°
2026-05-04 19:49 18.42950 -69.67154 65 ft 8 kts 276°
2026-05-04 19:49 18.42959 -69.67245 59 ft 15 kts 276°
2026-05-04 19:49 18.42969 -69.67349 61 ft 14 kts 276°
2026-05-04 19:49 18.43021 -69.67419 63 ft 12 kts 326°
2026-05-04 19:50 18.43041 -69.67456 60 ft 5 kts 245°
2026-05-04 19:50 18.43021 -69.67463 58 ft 3 kts 195°
2026-05-04 19:50 18.43002 -69.67469 62 ft 5 kts 194°
2026-05-04 19:50 18.42980 -69.67475 59 ft 1 kts 196°
2026-05-04 19:57 18.42981 -69.67475 64 ft 0 kts 196°